Hourly Data Report for July 22, 2021

HALIFAX STANFIELD INT'L A
NOVA SCOTIA
Current Station Operator: NAVCAN

44°52'52.000" N
63°30'31.000" W
145.40 m
8202251
71395
YHZ

Download Data

Hourly Data (July 2021)
Hourly Data Report for July 22, 2021
TIME
LST
Temp Definition
°C
Dew Point Definition
°C
Rel Hum Definition
%
Precip. Amount Definition
mm

Wind Dir Definition
10's deg

Wind Spd Definition
km/h
Visibility Definition
km
Stn Press Definition
kPa
Hmdx Definition


Wind Chill Definition


Weather Definition


00:00 17.4 17.4 100   14 12 1.6 99.36     Fog
01:00 17.4 17.4 100   16 14 0.4 99.34     Fog
02:00 17.7 17.7 100   16 9 0.4 99.34     Fog
03:00 17.8 17.8 100   13 12 0.4 99.29     Fog
04:00 17.9 17.9 100   13 8 0.4 99.27     Fog
05:00 18.2 18.2 100   13 10 0.4 99.25     Fog
06:00 18.5 18.5 100   12 10 0.2 99.21     Fog
07:00 18.7 18.7 100   16 8 0.4 99.25     Rain Showers, Fog
08:00 17.7 17.7 100   29 19 12.9 99.26     Thunderstorms,Rain Showers
09:00 17.6 17.4 99   4 10 16.1 99.18     LegendNANA
10:00 17.9 17.7 99   12 8 12.9 99.25     Rain
11:00 18.9 18.2 96   3 10 16.1 99.16     Mostly Cloudy
12:00 20.8 18.1 84   32 5 24.1 99.19 27   LegendNANA
13:00 21.3 17.0 76   13 5 24.1 99.13 27   LegendNANA
14:00 18.9 18.3 96   21 18 1.6 99.18     Thunderstorms,Heavy Rain Showers
15:00 16.8 16.3 97   34 26 24.1 99.25     LegendNANA
16:00 17.2 15.9 92   35 22 24.1 99.26     LegendNANA
17:00 16.8 15.4 91   34 25 24.1 99.33     Cloudy
18:00 16.0 14.7 92   35 21 24.1 99.40     LegendNANA
19:00 16.4 14.5 88   34 16 24.1 99.50     LegendNANA
20:00 15.3 14.0 92   35 16 24.1 99.55     Mainly Clear
21:00 14.6 14.1 97   33 14 24.1 99.62     LegendNANA
22:00 14.9 14.4 97   32 14 24.1 99.66     LegendNANA
23:00 15.0 14.7 98   32 14 24.1 99.69     Cloudy

Notes on Data Quality.

Legend

  • E = Estimated
  • M = Missing
  • NA = Not Available*
  • [empty] = Indicates an unobserved value
Date modified: